Location: Bonn
(50.7330°N, 7.1000°E)
Time: 07:52:11
(UTC+01:00)

Cosmos 1933 Rocket - Visible Passes

Search period start: 01 March 2015 00:00
Search period end: 11 March 2015 00:00
Orbit: 607 x 632 km, 82.5° (Epoch: 27 February)

Date Brightness Start Highest point End Pass type
(mag) Time Alt. Az. Time Alt. Az. Time Alt. Az.
06 Mar 6.6 22:32:59 10° N 22:33:04 10° N 22:33:04 10° N visible
07 Mar 6.7 22:50:30 10° NNW 22:50:41 11° NNW 22:50:41 11° NNW visible
08 Mar 6.2 21:30:41 10° NNE 21:31:07 12° NNE 21:31:07 12° NNE visible
08 Mar 6.8 23:08:10 10° NNW 23:08:18 11° NNW 23:08:18 11° NNW visible
09 Mar 6.0 21:47:52 10° N 21:48:46 15° N 21:48:46 15° N visible
10 Mar 6.0 22:05:14 10° N 22:06:24 18° N 22:06:24 18° N visible
